Regional Weather Roundup
Issued by NWS

Home | Current Version | Previous Version | Graphics & Text | Print | Product List | Glossary On
Versions: 1 2 3 4 5 6 7 8 9 10 11 12 13 14 15 16 17 18 19 20 21 22 23 24 25 26 27 28 29 30 31 32 33 34 35 36 37 38 39 40 41 42 43 44 45 46 47 48 49 50
000
ASUS43 KLSX 011807
RWRMO

WEATHER SUMMARY FOR MISSOURI
NATIONAL WEATHER SERVICE SPRINGFIELD MO
100 PM CDT MON SEP 01 2014

NOTE: "FAIR" INDICATES FEW OR NO CLOUDS BELOW 12,000 FEET WITH NO
       SIGNIFICANT WEATHER AND/OR OBSTRUCTIONS TO VISIBILITY.
       CURRENT SKY AND/OR WEATHER CONDITIONS ARE NOT AVAILABLE FOR
       CHILLICOTHE AND FARMINGTON.

MOZ001>031-035>038-043-044-053-054-011900-
...NORTHERN AND WESTERN MISSOURI...

CITY           SKY/WX    TMP DP  RH WIND       PRES   REMARKS
KANSAS CTY INT MOSUNNY   79  67  66 W9        29.90S
6HR MIN TEMP:  65; 6HR MAX TEMP:  79;

KANSAS C DTWN  PTSUNNY   81  64  56 W9G20     29.89S
6HR MIN TEMP:  67; 6HR MAX TEMP:  82;

ST JOSEPH      MOSUNNY   78  68  71 SW10      29.89R
6HR MIN TEMP:  66; 6HR MAX TEMP:  78;

CHILLICOTHE      N/A     76  66  71 SW10G18   29.89R
6HR MIN TEMP:  66; 6HR MAX TEMP:  77;

KIRKSVILLE     CLOUDY    75  65  70 W9G18     29.88S
6HR MIN TEMP:  65; 6HR MAX TEMP:  75;


$$
MOZ066>068-077>081-088>096-101>105-011900-
...SOUTHWEST MISSOURI...

CITY           SKY/WX    TMP DP  RH WIND       PRES   REMARKS
SPRINGFIELD    MOSUNNY   79  67  66 S20       29.93F
6HR MIN TEMP:  65; 6HR MAX TEMP:  79; 6HR PCP:  0.40;

JOPLIN         CLOUDY    81  66  60 SE20G25   29.91F
6HR MIN TEMP:  65; 6HR MAX TEMP:  81; 6HR PCP: TRACE;


$$
MOZ032>034-039>042-045>050-055>058-069>072-011900-
...CENTRAL MISSOURI...

CITY           SKY/WX    TMP DP  RH WIND       PRES   REMARKS
COLUMBIA       PTSUNNY   79  66  64 SW16      29.91S
6HR MIN TEMP:  66; 6HR MAX TEMP:  79; 6HR PCP: TRACE;

JEFFERSON CITY CLOUDY    78  65  63 SW10      29.90F
6HR MIN TEMP:  67; 6HR MAX TEMP:  78; 6HR PCP:  0.02;

ROLLA          CLOUDY    73  65  75 SW13      29.90F
6HR MIN TEMP:  65; 6HR MAX TEMP:  73; 6HR PCP:  0.09;

SEDALIA        MOSUNNY   78  66  66 SW14      29.92S
6HR MIN TEMP:  67; 6HR MAX TEMP:  78; 6HR PCP:  0.03;

WHITEMAN AFB   MOSUNNY   78  67  70 W14       29.91R
OSAGE BEACH    CLOUDY    77  64  65 SW10      29.91F

$$
MOZ051-052-059>065-011900-
...EAST CENTRAL MISSOURI...

CITY           SKY/WX    TMP DP  RH WIND       PRES   REMARKS
ST LOUIS INTL  CLOUDY    82  65  56 W13       29.90R
6HR MIN TEMP:  73; 6HR MAX TEMP:  82; 6HR PCP: TRACE;

SPIRIT OF STL  CLOUDY    80  66  62 W9        29.89R
6HR MIN TEMP:  69; 6HR MAX TEMP:  80; 6HR PCP:  0.01;

ST CHARLES     CLOUDY    81  64  56 W15       29.88R
6HR MIN TEMP:  72; 6HR MAX TEMP:  82;


$$
MOZ072>076-082>087-097>100-106>115-011900-
...SOUTH CENTRAL AND SOUTHEAST MISSOURI...

CITY           SKY/WX    TMP DP  RH WIND       PRES   REMARKS
CAPE GIRARDEAU MOSUNNY   83  70  64 SW15G26   29.92F
6HR MIN TEMP:  75; 6HR MAX TEMP:  85;

FARMINGTON     CLOUDY    75  64  69 SW9       29.90S
6HR MIN TEMP:  70; 6HR MAX TEMP:  75;

POPLAR BLUFF   PTSUNNY   83  65  54 S9        29.96F
6HR MIN TEMP:  74; 6HR MAX TEMP:  84; 6HR PCP:  0.01;

WEST PLAINS    CLOUDY    71  66  84 S9        30.02S
6HR MIN TEMP:  66; 6HR MAX TEMP:  73; 6HR PCP:  0.13;


$$



USA.gov is the U.S. government's official web portal to all federal, state and local government web resources and services.